FW6634 Weather Reports


time (UTC)temp
C
wind
direction
speed
KPH
gust
KPH
rain 1hr
cm
rain 24hr
cm
rain mn
cm
humidity
%
barometer
mb
20260505061200 11 133 0.0 0.0 0.00 0.00 0.00 86 1014.5
20260505060600 11 133 0.0 0.0 0.00 0.00 0.00 86 1014.6
20260505060002 11 133 0.0 0.0 0.00 0.00 0.00 85 1014.7
20260505055659 11 133 0.0 0.0 0.00 0.00 0.00 85 1014.5
20260505055100 12 133 0.0 0.0 0.00 0.00 0.00 84 1014.5
20260505054200 12 133 0.0 0.0 0.00 0.00 0.00 82 1014.5
20260505053559 12 133 0.0 0.0 0.00 0.00 0.00 81 1014.5
20260505052658 13 133 0.0 0.0 0.00 0.00 0.00 79 1014.5
20260505052103 13 133 0.0 0.0 0.00 0.00 0.00 79 1014.6
20260505051202 13 133 0.0 1.6 0.00 0.00 0.00 77 1014.6
20260505050558 14 133 0.0 1.6 0.00 0.00 0.00 76 1014.6
20260505041503 14 196 0.0 1.6 0.00 0.00 0.00 74 1014.4
20260505041201 13 56 0.0 1.6 0.00 0.00 0.00 75 1014.3
20260505040602 13 53 0.0 1.6 0.00 0.00 0.00 77 1014.3
20260505040006 13 228 0.0 4.8 0.00 0.00 0.00 81 1014.3
20260505035100 12 160 0.0 0.0 0.00 0.00 0.00 87 1014.2
20260505034500 11 160 0.0 0.0 0.00 0.00 0.00 89 1014.1
20260505033601 11 152 0.0 0.0 0.00 0.00 0.00 89 1014.2
20260505033001 12 152 0.0 0.0 0.00 0.00 0.00 89 1014.2
20260505032703 12 152 0.0 0.0 0.00 0.00 0.00 88 1014.3
20260505032104 12 152 0.0 0.0 0.00 0.00 0.00 88 1014.3
20260505031500 12 152 0.0 0.0 0.00 0.00 0.00 88 1014.2
20260505030600 12 152 0.0 0.0 0.00 0.00 0.00 87 1014.3
20260505030012 12 152 0.0 0.0 0.00 0.00 0.00 87 1014.4
20260505025102 13 152 0.0 0.0 0.00 0.00 0.00 85 1014.5
20260505024200 13 152 0.0 0.0 0.00 0.00 0.00 85 1014.5
20260505023600 13 152 0.0 0.0 0.00 0.00 0.00 85 1014.3
20260505023002 13 152 0.0 0.0 0.00 0.00 0.00 84 1014.5
20260505022700 13 152 0.0 0.0 0.00 0.00 0.00 86 1014.4
20260505022101 13 152 0.0 0.0 0.00 0.00 0.00 88 1014.4
20260505020600 13 152 0.0 0.0 0.00 0.00 0.00 86 1014.5
20260505020002 13 152 0.0 0.0 0.00 0.00 0.00 86 1014.4
20260505015102 13 152 0.0 0.0 0.00 0.00 0.00 85 1014.4
20260505014200 13 152 0.0 0.0 0.00 0.00 0.00 84 1014.4
20260505013600 13 151 0.0 0.0 0.00 0.00 0.00 84 1014.1
20260505012700 13 152 0.0 0.0 0.00 0.00 0.00 83 1014.1
20260505012100 14 152 0.0 0.0 0.00 0.00 0.00 83 1014.0
20260505011202 15 152 0.0 0.0 0.00 0.00 0.00 82 1014.0
20260505010601 15 152 0.0 0.0 0.00 0.00 0.00 81 1013.9
20260505010002 15 152 0.0 0.0 0.00 0.00 0.00 80 1013.7
20260505005700 15 152 0.0 0.0 0.00 0.00 0.00 79 1013.9
20260505005100 16 152 0.0 0.0 0.00 0.00 0.00 78 1013.7
20260505003604 17 152 0.0 0.0 0.00 0.00 0.00 74 1013.6
20260505002700 18 152 0.0 0.0 0.00 0.00 0.00 71 1013.7
20260505002104 18 151 0.0 0.0 0.00 0.00 0.00 69 1013.6
20260505001200 19 152 0.0 0.0 0.00 0.00 0.00 64 1013.5
20260505000600 20 152 0.0 0.0 0.00 0.00 0.00 59 1013.5
20260505000003 21 151 0.0 0.0 0.00 0.00 0.00 57 1013.6
20260504235702 21 151 0.0 0.0 0.00 0.00 0.00 55 1013.5
20260504235101 22 152 0.0 0.0 0.00 0.00 0.00 53 1013.5
20260504234202 24 152 0.0 0.0 0.00 0.00 0.00 49 1013.4
20260504233601 25 152 0.0 0.0 0.00 0.00 0.00 47 1013.3
20260504233001 25 151 0.0 0.0 0.00 0.00 0.00 45 1013.3
20260504232100 25 153 0.0 4.8 0.00 0.00 0.00 46 1013.3
20260504231200 25 131 0.0 3.2 0.00 0.00 0.00 45 1013.2
20260504230600 25 257 0.0 3.2 0.00 0.00 0.00 47 1013.2
20260504230003 26 134 0.0 1.6 0.00 0.00 0.00 44 1013.2
20260504225700 26 174 0.0 1.6 0.00 0.00 0.00 45 1013.3
20260504225102 26 318 0.0 1.6 0.00 0.00 0.00 43 1013.3
20260504223600 25 212 0.0 4.8 0.00 0.00 0.00 46 1013.4
20260504222700 25 127 0.0 4.8 0.00 0.00 0.00 47 1013.4
20260504222100 25 146 0.0 4.8 0.00 0.00 0.00 46 1013.5
20260504220600 24 101 0.0 4.8 0.00 0.00 0.00 46 1013.6
20260504220003 24 76 0.0 6.4 0.00 0.00 0.00 46 1013.6
20260504215702 24 110 0.0 6.4 0.00 0.00 0.00 48 1013.6
20260504215104 24 204 0.0 3.2 0.00 0.00 0.00 50 1013.6
20260504214202 23 128 0.0 1.6 0.00 0.00 0.00 51 1013.7
20260504213603 23 133 0.0 3.2 0.00 0.00 0.00 48 1013.7
20260504212702 23 141 0.0 9.7 0.00 0.00 0.00 47 1013.7
20260504212059 23 268 3.2 9.7 0.00 0.00 0.00 45 1013.6
20260504211200 24 238 0.0 11.3 0.00 0.00 0.00 48 1013.6
20260504210600 23 266 1.6 12.9 0.00 0.00 0.00 46 1013.6
20260504210002 23 303 4.8 9.7 0.00 0.00 0.00 44 1013.6
20260504205700 24 250 1.6 9.7 0.00 0.00 0.00 49 1013.5
20260504205100 24 248 0.0 9.7 0.00 0.00 0.00 48 1013.5
20260504203600 24 229 1.6 11.3 0.00 0.00 0.00 45 1013.6
20260504202659 24 152 3.2 11.3 0.00 0.00 0.00 45 1013.5
20260504202059 24 261 1.6 11.3 0.00 0.00 0.00 43 1013.6
20260504201201 24 224 3.2 14.5 0.00 0.00 0.00 45 1013.7
20260504200600 24 242 1.6 11.3 0.00 0.00 0.00 44 1013.6
20260504200002 24 174 1.6 8.0 0.00 0.00 0.00 44 1013.7
20260504195700 24 357 1.6 9.7 0.00 0.00 0.00 42 1013.8
20260504195100 24 117 0.0 11.3 0.00 0.00 0.00 45 1014.1
20260504194200 23 248 3.2 9.7 0.00 0.00 0.00 45 1014.0
20260504193600 23 240 1.6 22.5 0.00 0.00 0.00 44 1014.3
20260504193002 23 209 8.0 22.5 0.00 0.00 0.00 43 1014.5
20260504192701 23 236 3.2 17.7 0.00 0.00 0.00 43 1014.3
20260504192100 24 222 3.2 24.1 0.00 0.00 0.00 42 1014.4
20260504190600 25 257 6.4 20.9 0.00 0.00 0.00 40 1014.5
20260504190003 25 145 0.0 17.7 0.00 0.00 0.00 40 1014.6
20260504185100 25 235 3.2 12.9 0.00 0.00 0.00 41 1014.6
20260504184201 24 297 3.2 17.7 0.00 0.00 0.00 39 1014.8
20260504183600 24 221 3.2 14.5 0.00 0.00 0.00 42 1014.9
20260504182700 24 289 4.8 17.7 0.00 0.00 0.00 39 1015.1
20260504182100 23 221 8.0 25.7 0.00 0.00 0.00 38 1015.1
20260504181203 25 302 3.2 11.3 0.00 0.00 0.00 41 1015.2
20260504180559 24 120 6.4 16.1 0.00 0.00 0.00 39 1015.3
20260504180003 24 118 1.6 20.9 0.00 0.00 0.00 38 1015.1
20260504175702 23 228 4.8 20.9 0.00 0.00 0.00 41 1015.2
20260504175100 24 252 6.4 17.7 0.00 0.00 0.00 39 1015.2
20260504173559 23 188 3.2 11.3 0.00 0.00 0.00 41 1015.4
20260504172659 23 264 1.6 12.9 0.00 0.00 0.00 38 1015.6
20260504172100 23 269 1.6 16.1 0.00 0.00 0.00 39 1015.5
20260504171201 23 113 0.0 12.9 0.00 0.00 0.00 41 1015.8
20260504170600 23 142 0.0 11.3 0.00 0.00 0.00 41 1015.7
20260504150603 20 170 4.8 14.5 0.00 0.00 0.00 49 1017.2
20260504141159 16 236 3.2 8.0 0.00 0.00 0.00 58 1017.3
20260504140600 16 291 1.6 4.8 0.00 0.00 0.00 60 1017.3
20260504130600 13 243 3.2 4.8 0.00 0.00 0.00 66 1017.6
20260504110559 6 220 0.0 0.0 0.00 0.00 0.00 84 1017.9
20260504100559 5 270 0.0 0.0 0.00 0.00 0.00 90 1017.7
20260504081200 6 271 0.0 0.0 0.00 0.00 0.00 90 1017.7
20260504080600 6 271 0.0 0.0 0.00 0.00 0.00 89 1017.8